Location: Carrières
(48.9495°N, 2.0407°E)
Time: 04:18:13
(UTC+00:00)

Transit 2A - Pass Details

Date: 21 April 2024
Orbit: 594 x 957 km, 66.7° (Epoch: 19 May)

Event Time Altitude Azimuth Distance (km) Brightness Sun altitude
Rises 07:38:35 0° 249° (WSW) 2,879 8.5 26.7°
Reaches altitude 10° 07:41:02 10° 262° (W) 2,012 7.8 27.1°
Maximum altitude 07:44:57 28° 322° (NW) 1,240 6.9 27.7°
Drops below altitude 10° 07:49:11 10° 22° (NNE) 2,181 8.5 28.4°
Sets 07:51:58 0° 33° (NNE) 3,171 9.4 28.8°
